GFSNW_sfc_30mbdewp_273.txt.gz
Dewpoint
35 36 38 39 41 42 43 33 26 37 40 23 28 27 28 32 28 29 25 15 13 10 11 11 8 12 15 16 15 14 19 13 8 10 12 18 19 19 22 8 17 18 15 1
35 35 36 38 41 43 40 33 30 39 30 10 23 25 26 28 28 27 24 14 14 16 11 7 14 19 21 18 16 17 21 13 9 9 10 10 14 22 21 22 21 20 5 -1
32 32 35 38 37 42 40 34 26 29 38 26 19 19 19 21 24 25 26 25 19 12 15 19 19 16 19 23 22 22 21 19 11 1 7 10 8 19 22 17 15 15 17 11
30 32 33 35 39 40 38 35 29 26 27 30 24 21 17 15 17 22 26 20 19 13 16 20 19 21 21 21 26 22 15 16 20 17 16 11 9 16 21 15 17 9 15 18
31 31 31 34 38 40 34 29 31 33 31 33 29 24 18 16 16 25 15 19 18 16 15 18 19 19 18 15 18 18 23 13 18 16 15 13 8 14 20 17 17 22 20 20
35 31 31 33 35 38 32 34 36 33 29 31 29 27 23 20 20 22 25 19 18 17 17 20 23 21 20 18 16 15 20 18 16 14 17 12 11 12 16 18 18 17 12 16
36 35 31 31 33 38 36 34 32 28 27 28 29 28 26 22 23 16 24 24 25 24 27 26 25 25 24 22 19 21 20 17 15 14 10 -1 7 13 13 14 16 18 15 15
36 36 35 31 33 33 37 36 32 29 22 29 28 27 27 27 25 24 26 26 27 27 24 21 21 20 20 20 21 21 22 19 17 9 8 7 7 9 15 11 7 13 17 16
36 37 37 36 32 32 36 36 37 31 25 22 29 29 27 25 26 25 25 25 28 28 23 20 16 16 19 19 20 27 24 21 9 18 2 -8 -0 16 16 12 7 11 15 17
35 36 37 37 36 32 34 35 37 32 26 25 27 28 29 29 28 25 26 26 25 27 22 17 16 17 21 18 19 21 22 19 12 17 11 10 13 19 16 10 5 16 14 19
34 35 36 37 37 35 34 34 37 32 28 27 28 29 29 29 29 27 27 26 27 26 22 20 18 18 20 18 21 22 22 19 18 18 14 6 19 17 13 15 18 19 18 21
34 34 35 37 37 37 34 32 38 37 30 28 33 31 31 29 26 30 33 30 28 26 23 22 23 22 20 17 16 22 20 21 20 19 17 20 22 22 19 21 20 20 18 23
34 34 35 37 37 37 36 31 35 34 29 27 27 22 23 30 29 29 29 34 32 31 32 26 23 19 22 15 15 19 22 24 20 21 20 23 24 25 26 24 20 22 22 23
34 35 35 37 37 37 37 32 34 31 30 23 22 27 28 29 28 30 33 33 34 35 34 30 25 20 26 20 18 15 21 24 22 22 21 22 23 25 25 23 24 25 26 25
34 35 36 36 37 37 37 33 35 32 26 19 22 24 19 21 24 29 31 34 34 35 33 30 25 27 25 27 23 20 24 23 20 18 20 19 19 23 25 22 24 26 25 25
34 35 35 36 37 38 35 28 34 34 30 23 16 21 24 27 28 24 27 30 32 35 33 33 30 32 25 23 21 23 23 24 23 19 23 25 23 24 27 22 23 26 25 25
34 35 36 36 37 38 31 25 27 35 32 25 19 13 16 21 20 32 30 31 35 34 33 33 33 29 30 24 20 24 25 25 24 24 25 23 25 23 27 23 23 26 26 27
34 35 36 37 37 38 33 33 35 34 29 28 18 16 17 31 26 29 34 33 35 35 33 34 33 30 28 24 25 25 25 26 26 26 26 23 24 25 26 25 25 24 25 26
34 36 36 37 37 31 32 37 35 35 27 20 20 14 3 24 28 30 33 34 29 35 31 32 33 31 28 25 26 26 25 25 23 23 25 27 24 24 24 25 24 23 25 25
35 36 32 28 30 36 36 34 28 28 28 27 20 21 9 23 26 25 31 32 29 26 30 34 30 29 31 28 27 27 27 26 26 23 23 23 24 24 24 24 24 23 26 25
35 29 25 32 35 31 27 21 20 19 19 24 21 19 13 25 14 25 29 26 29 24 27 28 27 26 26 30 28 27 28 27 27 26 25 25 23 24 24 24 26 26 28 27
31 31 33 32 27 24 19 17 18 18 13 21 19 19 19 20 29 22 28 25 28 22 30 27 22 22 25 29 28 27 27 27 27 27 26 26 25 24 25 25 27 27 29 29
32 29 26 21 22 15 14 10 15 14 16 21 21 17 17 19 19 20 25 25 23 28 24 21 18 19 25 29 29 29 28 28 27 27 28 28 27 26 25 25 28 28 29 30
24 21 17 15 14 13 13 12 9 15 19 20 18 20 18 21 19 15 22 23 26 20 20 16 19 19 21 26 28 27 26 26 26 27 28 28 28 27 26 27 29 29 29 30
20 17 13 15 15 18 15 14 9 13 20 22 21 20 19 15 13 15 20 22 20 19 15 14 19 19 21 23 24 24 24 25 27 28 28 27 27 26 27 29 30 30 30 29
20 17 16 19 14 17 19 14 9 13 13 17 17 15 15 16 20 19 22 21 17 16 17 18 19 18 19 22 24 24 25 26 27 28 29 27 26 27 27 30 29 29 29 27
18 17 21 18 14 10 13 19 16 19 12 7 10 11 14 22 18 21 22 20 14 17 19 19 19 18 19 22 23 27 26 26 26 28 29 28 29 29 28 28 27 27 27 25

GFSNW_sfc_30mbdewp_276.txt.gz
Dewpoint
32 34 35 37 39 42 42 35 28 35 40 30 29 27 25 30 30 28 29 21 12 10 11 9 9 10 14 16 16 15 18 13 8 10 13 18 19 16 22 4 12 17 13 -4
33 33 35 36 38 40 39 32 30 38 31 22 23 26 27 28 27 27 24 16 18 16 12 8 11 16 22 18 16 18 18 12 7 8 10 14 16 22 20 19 21 16 1 -11
35 31 33 33 37 37 39 33 27 28 37 25 20 20 20 22 25 25 25 24 21 13 13 20 18 17 20 22 19 25 20 15 9 0 6 12 12 21 20 14 13 14 13 7
36 32 31 33 35 39 37 32 28 27 28 29 21 19 12 14 17 23 25 20 20 13 17 19 17 20 20 22 27 21 18 13 14 14 16 9 9 17 20 13 11 -1 6 14
35 35 31 31 34 40 34 28 30 33 29 33 26 22 19 16 17 22 17 21 18 18 15 17 17 18 17 15 18 19 19 15 18 15 15 12 10 13 21 18 17 15 20 20
36 35 33 32 33 39 32 33 34 31 29 29 28 27 24 22 18 20 25 19 19 17 17 19 22 22 20 18 16 19 15 17 17 15 17 13 10 12 19 19 17 16 10 13
36 36 36 32 32 37 35 33 32 27 24 29 26 27 28 26 24 19 23 23 24 24 27 26 25 24 22 20 19 23 18 16 15 12 10 8 12 12 15 16 17 18 16 16
35 36 36 36 32 35 36 36 32 28 21 25 26 29 28 28 26 25 22 20 28 28 23 22 20 20 18 19 21 22 22 17 14 5 7 5 3 9 11 14 10 18 17 16
35 35 36 35 35 33 37 36 37 31 24 19 28 27 29 26 26 25 25 26 28 27 24 21 17 16 18 17 19 26 21 19 8 13 0 -8 -0 16 18 12 4 11 17 19
35 35 36 35 35 35 35 35 37 32 26 25 27 24 27 30 27 25 25 25 26 26 23 18 17 16 21 17 16 18 19 16 6 12 4 7 12 18 16 5 -0 15 14 18
34 35 35 36 35 35 35 33 37 32 27 27 27 31 29 28 29 27 29 26 27 26 21 20 18 18 20 20 22 21 18 13 12 15 8 -1 16 15 13 16 18 21 17 20
34 34 34 35 36 36 36 32 37 35 29 27 32 32 30 29 29 28 30 32 30 27 23 23 22 19 21 20 18 23 18 18 17 16 13 18 21 19 20 23 20 20 19 22
34 35 35 35 35 37 37 33 35 34 28 27 28 23 25 31 30 30 27 31 34 33 33 28 24 21 20 17 18 21 23 24 21 20 19 22 23 25 25 25 24 21 21 23
32 33 34 35 35 36 37 33 35 29 28 21 19 26 26 28 29 29 29 27 29 31 36 32 28 22 23 18 18 19 22 23 22 22 21 22 22 24 24 24 25 23 23 25
31 32 33 35 35 36 38 37 35 30 21 16 19 23 21 23 24 28 29 28 27 30 31 31 28 27 26 26 22 17 24 23 21 19 21 19 17 18 25 25 24 24 24 25
30 31 32 34 35 36 34 28 33 32 26 21 14 19 21 22 24 23 28 29 30 30 31 32 33 32 29 23 20 20 22 24 23 19 22 22 20 24 26 24 24 26 25 24
31 32 33 33 35 36 31 28 31 33 32 24 15 13 17 21 20 26 26 27 30 31 30 31 31 30 32 29 25 22 23 23 24 22 24 23 24 21 24 25 24 29 27 25
32 32 33 34 35 36 34 35 35 33 31 27 17 13 15 25 22 18 30 27 29 31 28 32 31 32 32 27 29 26 25 25 25 24 25 23 23 24 25 27 25 27 26 26
33 33 34 34 35 31 31 36 35 35 26 20 20 12 2 21 27 26 30 31 26 31 28 29 32 30 26 28 29 26 25 25 25 26 26 26 25 24 25 26 24 23 26 27
35 34 32 28 31 38 37 33 28 27 28 23 17 20 10 18 20 20 23 29 23 24 27 33 29 24 28 28 28 28 27 26 25 23 23 25 26 25 25 26 25 23 25 27
34 30 28 32 38 31 27 22 21 21 19 22 21 19 11 19 8 7 18 24 24 19 22 25 22 22 26 31 30 29 29 28 27 25 24 24 23 24 25 26 27 26 26 27
33 31 33 31 28 24 19 17 19 17 12 20 20 17 18 16 26 17 21 18 25 17 28 22 18 19 24 26 29 29 29 28 28 27 26 27 26 25 24 25 26 27 27 28
34 29 25 23 22 15 13 11 13 14 17 21 21 17 19 19 25 18 21 18 17 28 24 21 19 19 26 28 30 30 30 29 28 28 28 29 28 27 26 25 26 28 28 29
25 22 16 16 14 13 13 12 14 16 18 19 18 18 14 17 15 14 11 12 18 18 18 15 22 22 23 28 29 29 29 29 29 29 29 29 28 27 27 27 27 28 28 29
21 19 13 16 16 16 15 15 15 19 21 20 18 20 18 18 13 14 9 7 6 19 17 14 16 20 24 27 29 29 29 29 29 28 28 28 28 28 26 27 28 29 30 30
20 17 15 18 16 18 17 14 11 23 22 21 19 15 13 9 8 8 9 6 3 19 20 20 20 19 22 24 28 29 29 30 29 28 28 28 27 27 27 27 29 29 29 29
18 16 20 16 15 15 16 17 14 22 19 12 12 10 7 16 13 5 7 10 20 21 22 22 20 19 20 23 25 26 26 26 26 26 27 26 28 28 28 27 29 29 29 29

GFSNW_sfc_30mbdewp_279.txt.gz
Dewpoint
36 35 32 35 37 39 39 37 29 34 39 31 29 26 27 29 29 30 30 24 12 10 12 9 10 10 13 17 19 15 16 15 9 10 14 21 21 21 21 6 13 18 14 2
35 36 32 34 35 37 37 32 32 37 33 24 24 27 27 28 26 28 25 20 16 16 12 8 11 13 21 19 19 17 17 14 10 8 11 17 17 22 21 20 21 15 3 -1
36 35 34 32 33 38 38 32 27 29 36 25 21 23 23 24 25 24 26 24 23 15 14 20 16 17 21 22 20 25 19 15 10 7 9 15 14 21 20 13 9 13 13 5
36 35 36 31 33 39 36 31 29 27 27 29 22 21 16 20 18 25 24 20 21 14 17 18 17 20 21 25 30 22 20 13 14 13 15 13 13 19 18 11 13 -0 6 8
36 35 36 32 32 36 34 27 28 31 28 31 28 22 17 13 16 20 17 21 19 20 16 17 16 19 18 17 18 20 18 20 18 15 17 11 10 15 19 16 14 11 13 15
35 37 37 34 32 38 32 33 34 30 28 27 27 26 23 19 17 18 25 23 20 18 17 20 22 22 21 19 18 18 16 19 17 13 17 14 11 13 18 18 16 14 10 8
35 36 36 36 33 37 36 33 32 27 22 26 27 27 27 24 23 19 23 25 22 25 27 26 25 24 22 21 22 23 18 17 16 15 14 8 12 14 16 17 18 17 15 14
35 36 36 36 35 37 35 34 31 28 22 24 24 27 29 29 29 27 22 22 25 29 24 22 20 20 18 19 25 22 22 18 13 10 11 6 6 9 13 16 12 18 18 16
34 33 35 34 35 35 36 35 36 30 25 20 26 26 28 28 27 26 26 28 29 27 25 22 18 14 17 16 21 24 20 20 15 13 6 3 4 13 17 15 2 14 19 19
34 36 34 34 34 35 37 35 35 32 25 26 27 22 24 30 29 26 26 27 26 26 23 22 19 16 21 16 15 16 18 15 11 12 7 5 8 19 17 -2 1 16 18 20
33 35 35 36 35 35 38 34 36 30 26 26 27 30 28 27 28 27 30 27 28 26 21 22 20 20 21 19 20 17 16 14 12 15 8 4 15 16 12 16 20 22 21 21
34 35 35 35 36 36 37 32 36 34 29 23 31 31 31 29 26 28 29 30 31 27 23 24 23 21 23 22 18 24 14 16 15 12 11 15 19 18 21 24 23 22 21 22
32 33 34 35 35 36 37 33 36 33 28 24 26 21 24 31 30 31 26 30 36 33 34 31 26 21 22 19 20 22 23 24 19 16 19 20 22 22 24 25 24 24 23 24
30 31 32 35 35 36 36 34 36 30 26 19 17 24 25 27 29 29 29 26 31 31 32 31 30 25 24 20 20 21 23 24 22 21 22 22 23 24 24 25 27 25 24 24
28 28 29 32 34 35 36 36 36 34 25 19 18 22 22 24 28 28 28 28 27 28 27 29 28 29 26 26 23 20 25 24 21 20 21 20 19 22 24 24 24 26 25 24
28 28 28 30 32 35 36 29 34 36 31 24 15 19 19 20 23 26 26 27 27 28 28 29 31 35 33 27 23 21 23 25 25 21 24 23 23 23 25 25 26 26 27 25
30 29 29 29 32 35 31 28 33 36 34 24 15 12 17 21 23 25 25 28 29 28 26 28 30 32 33 29 25 24 24 24 25 25 25 22 24 19 22 26 26 28 28 27
33 30 29 31 33 34 34 36 37 36 31 25 14 13 15 23 19 15 27 26 28 28 27 30 29 31 30 26 26 26 24 26 26 25 25 22 22 24 24 27 28 27 26 27
33 33 31 33 32 31 32 36 37 36 29 21 19 11 5 24 26 24 28 28 23 27 24 23 28 25 25 26 26 29 28 28 26 26 25 26 24 23 24 27 27 26 27 28
33 34 31 27 31 37 37 33 28 28 28 22 18 19 8 18 22 21 22 27 20 19 20 25 23 21 22 27 27 26 25 27 28 27 26 27 26 26 26 26 26 26 27 28
34 30 28 31 38 32 29 23 21 21 18 21 20 19 11 20 6 6 13 17 21 18 16 19 16 16 21 25 29 29 29 29 28 28 27 27 27 27 27 27 28 27 28 29
33 32 33 32 28 24 19 18 19 17 13 19 19 19 16 17 25 17 19 15 18 9 27 20 13 17 19 26 27 27 27 27 27 30 28 27 26 27 27 27 28 29 28 30
34 29 24 24 22 15 13 11 13 14 17 20 21 18 19 23 24 18 19 18 13 18 13 17 15 14 18 24 29 30 31 31 31 30 30 29 28 28 27 26 27 28 29 30
26 22 16 17 14 14 13 12 13 16 20 21 18 19 17 18 20 16 13 12 15 6 5 7 8 20 19 21 24 27 27 29 29 29 30 29 30 30 29 28 28 27 27 29
22 18 12 16 15 16 16 16 17 20 21 20 19 20 19 17 13 17 13 8 2 -1 -3 11 23 23 22 25 27 27 27 30 30 30 29 30 30 30 29 29 29 28 29 30
20 18 16 19 16 16 16 16 18 23 21 22 20 17 14 12 13 12 7 -1 -6 4 20 25 24 23 24 24 29 30 30 31 31 31 31 31 30 29 29 28 29 28 29 29
19 16 20 17 16 13 14 16 18 25 18 13 16 13 9 13 10 6 4 -0 2 12 19 21 21 25 27 26 27 30 30 30 31 31 30 30 30 30 29 27 28 29 30 30

GFSNW_sfc_30mbdewp_282.txt.gz
Dewpoint
36 36 37 33 35 36 37 37 30 38 40 25 24 25 23 27 21 29 29 26 13 11 10 8 7 6 6 16 18 11 16 14 10 10 15 16 13 13 15 24 20 22 24 18
35 36 37 33 34 37 35 31 33 40 38 23 25 27 26 27 23 21 25 24 19 16 13 10 9 8 20 20 17 15 17 14 11 11 11 16 17 17 17 18 24 22 20 17
36 37 36 35 32 38 35 31 27 33 36 27 20 19 18 23 24 22 25 24 23 18 16 18 13 14 22 22 19 24 18 15 10 5 7 9 10 12 15 12 10 8 12 8
35 36 36 36 32 39 35 31 29 32 27 29 23 17 15 15 16 20 21 16 22 16 19 16 16 17 21 22 28 22 19 10 14 13 11 12 11 12 13 9 8 5 1 2
34 35 37 36 33 37 34 28 28 31 29 29 28 23 20 10 12 12 13 16 15 20 18 16 17 17 18 15 23 21 23 14 15 16 13 10 11 13 11 8 6 6 1 3
33 35 37 36 34 35 32 34 34 30 27 27 25 25 24 19 13 14 15 18 16 17 19 23 23 23 22 20 18 20 20 23 18 14 14 13 12 11 13 12 10 6 5 4
34 36 36 35 35 36 32 33 33 27 20 24 26 27 22 23 21 14 21 17 20 23 28 27 26 24 23 23 23 21 18 17 21 21 14 11 11 14 11 13 13 12 12 10
34 35 36 34 35 37 34 35 31 26 21 19 20 27 28 24 25 26 23 21 23 27 27 23 22 24 20 23 24 22 21 18 22 20 15 7 5 9 12 12 11 13 13 12
34 35 35 36 33 36 37 33 35 31 23 18 23 22 27 26 24 25 26 27 30 29 24 23 22 17 19 18 21 23 21 21 16 24 15 5 3 7 12 15 5 9 14 15
34 35 35 36 35 35 39 35 33 30 23 19 24 20 24 29 31 26 25 26 28 29 26 26 20 14 16 16 16 19 18 21 22 19 13 10 10 14 14 3 9 17 16 16
33 35 34 36 35 36 38 35 34 28 24 21 26 25 24 26 30 26 30 28 28 27 25 20 20 20 17 14 15 17 17 19 17 20 19 11 12 15 8 18 23 22 22 21
31 34 33 36 35 35 37 31 38 34 29 23 28 28 28 25 24 26 31 29 30 27 26 22 20 22 23 16 16 21 16 17 18 17 15 21 17 14 21 25 22 23 23 22
30 32 33 34 35 36 38 34 36 33 30 25 23 18 19 27 28 28 27 31 32 31 30 32 28 23 17 15 15 17 21 23 19 18 18 20 18 18 21 22 23 23 24 23
28 29 30 32 34 35 36 35 36 33 30 23 19 23 23 25 26 26 27 27 33 32 31 29 31 25 22 17 17 18 19 23 19 18 23 22 22 19 18 20 22 24 24 24
28 28 29 29 30 34 35 38 37 36 30 23 21 20 18 22 26 25 25 25 25 29 26 27 27 28 28 26 24 19 23 20 19 18 20 17 19 23 23 23 22 23 23 24
31 28 29 28 28 32 35 30 36 37 34 28 20 20 18 18 21 21 22 24 24 25 27 27 28 28 33 27 19 18 20 23 24 20 21 24 22 24 24 21 21 24 25 24
32 30 28 28 29 33 31 27 33 37 35 28 22 16 18 19 19 20 20 23 24 25 23 25 23 23 32 30 22 19 20 23 24 26 26 25 26 21 24 25 23 27 27 27
33 32 29 30 30 30 32 36 37 36 31 29 21 16 14 19 20 22 23 22 24 24 22 19 23 24 26 24 25 25 25 24 24 25 26 25 22 23 21 24 26 26 27 27
34 33 31 31 31 30 29 37 38 36 30 23 20 13 11 21 20 23 26 24 20 19 19 18 17 19 22 19 20 20 22 21 23 25 26 25 25 20 21 24 26 25 24 28
37 34 31 27 32 36 37 34 27 28 29 28 21 14 12 19 20 20 23 26 17 13 14 17 16 15 15 17 19 20 21 22 23 20 24 27 25 25 23 24 25 25 25 27
34 30 27 33 36 33 30 24 23 25 21 24 19 18 12 18 13 9 10 9 9 6 7 15 8 3 7 11 14 17 20 21 19 19 23 26 28 28 27 26 27 28 28 30
33 33 34 33 30 26 21 19 21 19 14 18 18 18 14 16 18 12 18 8 5 1 16 15 17 11 11 6 8 16 18 19 21 21 22 25 25 26 28 28 29 31 31 32
33 30 28 26 24 18 15 13 14 14 16 18 19 18 17 19 17 15 16 13 7 2 2 -3 -3 0 14 19 14 14 19 22 22 22 22 25 26 27 31 29 30 34 34 35
28 24 18 15 16 16 14 8 10 15 16 17 16 18 18 16 16 14 12 10 9 -1 -8 -9 -2 10 22 22 23 24 21 22 23 24 26 27 32 34 34 33 33 32 33 33
25 19 13 16 16 16 15 15 15 17 17 17 15 17 18 15 14 12 9 9 3 -5 -8 -7 2 22 21 20 21 24 26 26 27 27 30 32 34 34 34 33 33 32 31 33
22 18 17 18 16 19 19 18 15 19 18 16 15 16 14 12 7 8 8 -1 -5 -6 -7 -1 19 17 16 17 18 23 26 28 27 28 28 30 32 34 33 34 34 32 32 31
19 19 22 19 18 19 19 17 17 20 18 14 14 13 11 11 9 5 3 2 1 2 7 7 11 15 17 21 19 24 28 29 28 28 26 30 32 34 32 32 33 32 32 32

GFSNW_sfc_30mbdewp_288.txt.gz
Dewpoint
33 34 35 37 37 35 33 35 29 41 41 30 29 27 23 23 20 19 13 23 21 9 7 7 6 5 5 10 12 8 13 17 15 13 16 17 15 17 18 26 24 22 26 30
33 33 35 37 37 35 26 30 31 34 40 28 28 25 19 22 21 18 16 17 22 18 11 12 11 10 11 14 13 14 16 16 17 13 13 13 12 16 18 29 30 28 23 20
32 33 34 35 37 36 31 31 27 33 36 30 28 27 21 18 20 24 19 16 18 19 16 15 15 10 18 20 15 20 19 14 18 14 15 14 12 13 14 20 23 19 23 13
32 33 34 35 37 36 31 29 25 32 27 28 27 26 29 19 16 20 20 20 17 20 18 17 14 15 20 21 24 17 18 16 14 17 12 13 12 12 13 12 18 19 17 11
32 32 34 34 35 35 32 28 26 27 22 22 26 25 22 23 19 15 19 17 17 18 18 17 16 14 18 17 20 21 21 19 18 18 12 8 7 10 10 12 11 14 14 8
31 32 34 36 34 35 33 31 29 26 20 19 24 27 22 18 20 17 15 16 15 15 14 21 22 25 24 20 17 21 22 23 20 18 14 12 11 11 7 9 12 11 13 11
30 31 34 36 34 36 36 35 36 28 22 17 18 29 26 27 23 19 15 15 14 15 26 25 24 26 25 22 19 20 21 22 22 23 17 12 15 11 9 8 7 9 9 9
30 30 32 36 35 34 36 37 35 28 20 17 19 24 28 22 22 26 25 23 15 22 24 23 24 25 24 24 25 21 22 23 23 23 20 17 14 11 9 8 8 8 9 9
29 30 30 34 36 35 36 36 39 34 24 17 18 26 22 23 21 26 27 23 24 24 23 22 25 18 18 19 18 20 19 23 25 27 20 14 17 13 12 11 10 10 10 11
30 30 31 33 36 36 37 36 38 33 27 21 16 14 26 28 27 27 31 32 27 30 24 23 22 19 16 13 14 19 21 22 23 26 21 15 12 10 11 10 13 16 15 12
30 31 30 32 34 36 36 36 39 33 31 24 22 18 16 20 25 28 32 31 31 32 26 21 21 21 20 15 14 16 19 21 23 26 21 16 14 8 8 16 24 21 20 19
32 31 31 31 33 35 37 33 38 38 32 29 31 28 25 22 23 33 29 31 30 29 30 24 21 19 18 18 16 18 18 21 22 24 26 21 18 16 18 25 23 22 22 22
32 33 31 31 32 34 35 35 36 34 30 27 25 21 21 23 22 21 25 30 33 31 33 30 31 23 19 17 16 20 28 22 20 20 23 22 20 19 25 23 23 22 21 21
34 33 32 30 30 32 34 35 37 35 32 25 20 21 21 19 21 21 23 28 34 33 31 28 30 28 33 23 21 20 28 28 27 23 20 21 21 21 20 20 21 19 19 21
36 34 33 32 30 31 31 35 38 36 32 25 26 23 23 21 21 20 21 21 24 26 28 28 28 29 32 31 28 26 25 25 28 27 26 23 22 24 22 22 21 20 18 18
36 38 34 33 30 30 31 29 34 36 36 27 19 21 22 16 18 20 19 18 19 19 27 24 25 24 28 28 25 23 24 24 24 25 26 24 25 23 25 23 21 21 20 20
35 38 35 34 32 29 31 27 33 37 36 27 19 16 16 15 17 18 16 17 17 19 27 23 21 21 31 28 21 20 20 21 23 26 28 27 22 26 24 22 22 22 20 21
36 37 35 35 33 29 29 32 36 37 32 30 20 15 19 20 18 18 16 17 20 23 21 20 20 20 23 21 19 19 21 22 23 23 25 29 25 24 24 22 21 20 24 23
36 35 36 35 31 28 26 30 37 35 30 24 20 11 13 27 18 21 22 20 20 19 20 19 17 19 20 19 17 17 18 19 21 28 29 27 27 25 27 26 23 21 22 24
35 35 31 28 31 29 33 34 29 28 29 29 20 15 15 25 20 20 20 22 16 14 16 16 18 16 14 15 16 17 18 19 20 26 30 31 28 23 24 25 25 23 22 23
33 30 29 31 32 30 28 22 21 22 21 22 18 16 15 30 23 18 20 18 15 11 6 9 8 9 12 11 11 13 14 15 17 19 24 26 25 25 26 26 27 27 27 26
33 35 36 32 26 24 19 15 16 16 12 12 13 13 13 24 25 20 18 13 8 1 0 3 4 7 6 10 19 13 15 14 18 16 18 23 24 24 24 25 27 29 29 31
33 31 28 25 23 18 11 7 5 7 8 9 9 13 13 20 18 20 16 12 7 3 2 2 2 3 3 3 4 20 22 23 24 21 16 16 18 23 25 24 27 32 34 37
28 25 18 15 17 11 9 5 3 5 4 10 13 16 17 19 17 16 13 10 5 1 -1 -1 5 3 3 19 24 19 19 19 18 19 24 27 28 28 29 28 29 31 30 32
27 25 17 12 11 12 8 8 8 9 13 20 12 19 18 16 16 15 12 10 5 -1 -2 4 10 5 4 6 14 20 20 15 14 14 16 22 25 26 28 31 34 36 34 32
29 22 16 11 11 13 16 15 11 19 27 22 12 16 17 15 14 10 10 5 -0 -1 4 10 9 7 5 6 9 14 17 16 14 13 14 15 23 27 29 32 34 37 36 36
25 23 22 20 18 17 20 20 16 21 14 13 22 18 13 13 11 5 3 4 6 10 14 15 13 14 8 9 11 11 12 14 17 17 21 22 25 29 29 30 32 38 39 37

GFSNW_sfc_30mbdewp_291.txt.gz
Dewpoint
33 33 33 35 37 37 34 29 27 37 38 33 34 29 22 24 23 24 23 16 17 23 21 7 8 9 5 12 11 12 13 21 12 13 17 18 18 16 24 15 16 23 26 24
32 32 33 35 36 37 34 27 29 32 39 29 27 28 28 24 22 23 22 22 18 19 22 19 12 9 12 15 17 12 17 18 13 14 15 16 13 17 24 29 32 22 17 17
33 33 33 34 36 36 34 27 24 31 35 34 31 30 28 25 22 21 21 23 25 21 20 23 18 15 13 19 19 20 21 17 18 14 15 16 13 17 25 26 21 22 24 22
32 33 33 35 36 35 35 29 25 32 25 28 28 28 31 29 25 21 20 22 22 21 20 21 18 18 20 20 23 21 20 14 15 20 16 15 13 13 16 20 24 19 20 23
31 32 32 35 35 35 33 27 27 29 25 21 23 28 27 24 25 26 23 20 20 21 21 22 25 19 21 16 20 20 23 19 17 14 20 17 15 14 13 15 19 23 21 19
31 31 31 34 35 35 32 32 36 32 24 20 18 22 30 30 29 24 22 21 23 19 19 27 27 29 28 27 19 20 22 19 18 14 18 19 15 15 14 14 15 15 17 19
30 30 30 32 35 35 35 33 34 29 21 21 22 22 27 27 32 28 28 28 25 19 26 26 30 28 27 28 21 23 22 21 24 19 17 12 17 17 16 14 12 14 13 15
30 29 30 31 34 36 35 33 34 30 23 21 18 20 26 25 28 25 26 28 29 30 23 23 24 25 24 22 24 23 22 26 21 18 18 17 18 15 13 11 11 11 13 13
31 30 30 31 32 35 36 36 35 33 26 21 20 20 18 23 28 27 26 30 33 27 25 23 23 20 24 18 19 23 23 27 20 24 17 15 17 19 16 13 10 14 13 13
31 31 31 30 32 34 36 34 36 33 26 25 26 26 26 25 26 27 30 31 31 33 25 22 24 23 20 17 16 16 21 21 22 25 20 21 20 17 18 10 14 16 20 18
32 32 32 31 31 32 36 33 37 34 28 27 27 28 28 27 27 25 31 28 30 31 26 23 23 22 21 19 17 16 20 20 21 24 21 18 18 15 13 17 24 19 20 25
34 32 33 32 31 32 35 31 37 38 31 29 32 30 30 30 27 25 30 29 29 28 24 28 25 20 22 19 16 20 18 21 21 23 23 26 21 19 26 26 23 24 23 22
36 35 33 33 32 31 34 32 34 33 29 27 27 25 26 27 27 26 24 31 32 30 31 28 29 27 25 18 17 21 27 28 27 23 26 26 22 22 24 23 24 25 22 21
33 36 35 34 33 31 31 33 36 34 31 24 24 27 24 30 27 25 24 30 35 32 33 28 27 28 33 28 28 26 29 30 30 29 27 26 24 25 23 22 22 22 21 21
33 35 37 36 34 31 31 33 35 36 29 23 24 25 22 25 26 20 21 28 31 32 28 27 25 29 29 33 30 28 27 33 30 29 30 31 29 31 29 22 20 22 19 20
35 34 36 37 35 32 31 28 35 37 35 27 21 26 22 24 25 23 23 22 22 22 26 27 27 27 27 25 26 25 27 28 33 33 33 33 32 30 29 25 23 22 21 21
38 38 36 37 38 33 29 26 32 37 37 28 22 20 21 21 23 26 24 21 21 21 24 25 24 25 27 26 23 21 22 24 24 25 28 30 32 31 29 27 25 24 23 24
38 37 36 37 36 34 30 31 35 36 28 30 21 18 19 26 20 22 23 19 20 21 22 24 21 22 22 22 24 21 20 21 22 24 29 30 31 31 28 28 28 25 22 23
37 36 36 37 34 30 28 29 33 36 28 23 23 15 12 29 23 22 21 22 18 23 21 19 19 19 20 22 22 19 19 19 21 21 24 32 32 31 29 29 28 26 25 24
36 35 31 28 31 32 33 30 29 29 30 28 22 18 16 24 27 21 19 21 19 16 19 23 19 17 17 17 16 16 17 17 17 17 19 23 29 29 30 28 28 28 27 28
34 30 28 33 33 29 26 23 22 21 21 24 23 19 17 29 21 22 22 20 18 13 12 17 17 15 15 18 17 16 15 15 15 17 17 19 20 27 28 28 30 29 28 27
33 33 35 33 27 21 19 17 19 19 16 18 18 18 19 26 28 21 25 22 15 9 7 7 9 9 10 8 11 19 20 17 16 21 24 25 20 19 25 29 26 28 33 34
34 30 27 26 23 17 14 11 12 12 14 15 15 14 17 23 23 18 16 13 11 9 3 2 1 4 7 21 23 20 24 24 22 20 22 27 23 27 28 28 28 30 32 33
26 24 19 19 16 17 15 10 8 10 9 13 19 16 16 19 19 16 13 14 10 4 1 -0 5 11 12 14 23 24 24 24 22 16 18 20 22 23 24 25 28 28 28 30
26 26 16 15 17 17 15 14 13 12 17 22 23 25 19 17 15 17 14 12 8 4 -1 3 11 9 10 11 20 21 23 22 22 17 15 15 16 18 21 25 27 29 31 32
28 25 20 18 15 15 17 18 17 25 26 25 26 22 15 13 13 14 12 9 5 1 4 18 17 13 14 12 13 20 22 21 19 17 18 18 18 19 21 24 27 29 31 33
23 23 26 25 21 17 18 18 18 29 24 22 24 18 12 16 14 9 8 7 7 9 12 21 20 17 14 16 16 17 17 17 18 18 19 20 22 23 26 27 27 29 30 33